Regional Weather Roundup
Issued by NWS

Home | Current Version | Previous Version | Graphics & Text | Print | Product List | Glossary On
Versions: 1 2 3 4 5 6 7 8 9 10 11 12 13 14 15 16 17 18 19 20 21 22 23 24 25 26 27 28 29 30 31 32 33 34 35 36 37 38 39 40 41 42 43 44 45 46 47 48 49 50
000
ASUS45 KBOU 142307
RWRCO

WEATHER ROUNDUP FOR COLORADO
NATIONAL WEATHER SERVICE DENVER/BOULDER CO
500 PM MDT SUN SEP 14 2014

NOTE: "FAIR" INDICATES FEW OR NO CLOUDS BELOW 12000 FEET WITH NO
SIGNIFICANT WEATHER AND/OR OBSTRUCTIONS TO VISIBILITY.

COZ001>005-013-030-031-150000-
...NORTHWEST COLORADO...

CITY           SKY/WX    TMP DP  RH WIND       PRES   REMARKS
CRAIG          PTSUNNY   80  29  15 W20       30.12S
HAYDEN         PTSUNNY   79  27  14 W22G28    30.14S
MEEKER         PTSUNNY   77  35  21 W8        30.16S
MOUNT WERNER   NOT AVBL
STEAMBOAT SPGS PTSUNNY   72  31  21 W10G21    30.18R
WALDEN         CLOUDY    63  28  27 W24       30.26R
$$

COZ006>008-011-150000-
...WEST CENTRAL VALLEYS...

CITY           SKY/WX    TMP DP  RH WIND       PRES   REMARKS
GRAND JUNCTION SUNNY     85  36  17 NW8       30.04F
MONTROSE       MOSUNNY   84  37  18 N5        30.13S
EAGLE          MOSUNNY   79  30  17 W18       30.18F
RIFLE          PTSUNNY   83  36  18 W10       30.09F
DELTA          MOSUNNY   89  34  14 S5        30.07F
NUCLA          MOSUNNY   79  37  22 N3        30.17S
$$

COZ017>023-064>068-150000-
...SOUTHWEST COLORADO...

CITY           SKY/WX    TMP DP  RH WIND       PRES   REMARKS
DURANGO        SUNNY     80  35  19 MISG      30.17F
CORTEZ         SUNNY     83  38  20 SW7       30.13F
PAGOSA SPRINGS NOT AVBL
TELLURIDE      MOSUNNY   68  34  28 W9        30.36F
WOLF CREEK PAS CLOUDY    46  34  61 N7        30.58R
$$

COZ009-010-012-014-032>034-037-058>063-150000-
...CENTRAL COLORADO...

CITY           SKY/WX    TMP DP  RH WIND       PRES   REMARKS
ASPEN          PTSUNNY   72  32  23 SW8       30.27S
BUENA VISTA    MOSUNNY   75  24  15 W16G26    30.25S
COPPER MTN     MOSUNNY   55  27  33 W25G31    30.56S
BERTHOUD PASS  CLOUDY    46  45  93 NW20G26   30.59R
COTTONWOOD PAS PTSUNNY   66  21  18 CALM      30.41R
GUNNISON       SUNNY     73  32  21 W10       30.27S
KREMMLING      MOSUNNY   70  28  21 W9        30.24S
LEADVILLE      MOSUNNY   61  26  26 W16G24    30.40R
MONARCH PASS   MOSUNNY   55  28  35 W24G33    30.66S
SALIDA         MOSUNNY   79  23  12 W21       30.29S
SUNLIGHT       CLOUDY    59  34  38 CALM      30.50S
WILKERSON PASS NOT AVBL
$$

COZ069>075-150000-
...SAN LUIS VALLEY/SANGRE DE CRISTO MOUNTAINS...

CITY           SKY/WX    TMP DP  RH WIND       PRES   REMARKS
ALAMOSA        PTSUNNY   75  31  19 NW5       30.23F
LA VETA PASS   NOT AVBL
SAGUACHE       NOT AVBL
$$

COZ035-036-038>040-150000-
...NORTHERN COLORADO FRONT RANGE...

CITY           SKY/WX    TMP DP  RH WIND       PRES   REMARKS
DENVER INTL AP PTSUNNY   85  32  15 NW13      30.05R
DMNS CITY PARK   N/A     83  31  15 NW7G15    30.04S
AURORA         PTSUNNY   81  34  18 NW7       30.07S
FRONT RANGE AP MOSUNNY   84  32  15 W8        30.06S
ERIE MUNI ARPT PTSUNNY   78  37  22 N13       30.04R
BOULDER MUN AP PTSUNNY   81  37  21 W14G21    30.04S
CENTENNIAL     PTSUNNY   80  36  20 S7        30.08R
BROOMFIELD     PTSUNNY   82  37  20 NW16G22   30.07
FORT COLLINS   PTSUNNY   79  39  24 W5        30.02R
LONGMONT       PTSUNNY   80  43  26 W5        30.05R
$$

COZ041-046-047-076>085-087-088-150000-
...PIKES PEAK/PALMER DIVIDE AND SOUTHERN FOOTHILLS...

CITY           SKY/WX    TMP DP  RH WIND       PRES   REMARKS
COLO. SPRINGS  MOSUNNY   80  25  13 S8        30.12F
A. F. ACADEMY  MOSUNNY   78  27  15 S9        30.14R
ELLICOTT       NOT AVBL
FALCON         MOSUNNY   81  26  13 S7        30.18S
FORT CARSON    MOSUNNY   82  33  17 S8        30.09F
LIMON          SUNNY     83  28  13 SW3       30.06F
MONUMENT HILL  MOSUNNY   73  32  21 SW3       30.17S
TRINIDAD       MOSUNNY   84  32  15 SE7       30.10S
$$

COZ042>045-048>051-090-091-150000-
...NORTHEAST COLORADO...

CITY           SKY/WX    TMP DP  RH WIND       PRES   REMARKS
GREELEY ARPT   PTSUNNY   79  37  22 SW13      30.01S
AKRON          SUNNY     83  32  16 W14       29.98S
BURLINGTON     SUNNY     81  52  36 S17G25    30.00F
WRAY           SUNNY     80  56  43 SE14      29.96S
STERLING       PTSUNNY   73  55  53 N25G36    29.97R
HOLYOKE        SUNNY     79  55  44 SE12      29.96S
FORT MORGAN    MOSUNNY   80  33  18 N9        30.00R
$$

COZ086-089-092>099-150000-
...SOUTHEAST COLORADO...

CITY           SKY/WX    TMP DP  RH WIND       PRES   REMARKS
PUEBLO         SUNNY     88  28  11 SE10      30.00F
LA JUNTA       SUNNY     91  27  10 VRB3      29.99F
LAMAR          SUNNY     91  33  12 SE8       29.96F
SPRINGFIELD      N/A     82  54  37 S20G30    30.05R
$$



USA.gov is the U.S. government's official web portal to all federal, state and local government web resources and services.